Showing default

YAOGAN-30 T, 45462

Orbit data source: Space-Track

YAOGAN-30 T, 45462 is a payload satellite owned by PLA SSF (CN) in LEO that was launched on Tue, 24 Mar 2020 UTC via a CHANG ZHENG 2C launch vehicle from the Xichang Space Center, China (XSC). Payload-class satellites include a variety of spacecraft equipped with specific instruments for various scientific and technological missions. These include communications satellites like Starlink; space stations such as the ISS; scientific satellites like the Hubble; Earth observation satellites from companies like Planet Labs, Umbra, and HawkEye 360; GPS; miniature CubeSats for education and research; and military/defense satellites.

Loading next visibility...
Identifier
45462, 2020-021C
Orbit
LEO
Country
Flag of CNCN / PRC
Related business
Manufacturer
SECM
Mission
Operational Defense Sigint
Bus & Motor
Unknown
Mass
~500 kg wet, ~500 kg dry
Launch date (UTC)
2020-03-24 (6 years ago)
Launch vehicle
CHANG ZHENG 2C
Launch site
Xichang Space Center, China (XSC)
Object type
Payload
Rocket body
Debris
Shape & HBR
Box + 2 Pan, 0.5 m
Radar Cross Section
0.446 m², Large (>1 m²)

Expand to show TLE details & history
Last TLE update: 22 hours ago

TLE from 22 hours ago
0 YAOGAN-30 T
1 45462U 20021C   26172.50539958  .00001497  00000-0  11211-3 0  9998
2 45462  34.9939 182.2160 0000383  58.4465 301.6281 15.02693121341061
Epoch: 2026-06-21T12:07Z
TLE epoch observation values (Epoch: 2026-06-21T12:07:46.523Z)
Latitude
-0°
Longitude
90.56745°
Altitude
557.373 km
Speed
7.585 km/s
True Right ascension
12h 08m 51s
True Declination
0° 00' 00"
Sunlit
Object was in daylight at epoch
Visualization orbit readout
Latitude
Unknown
Longitude
Unknown
Altitude
Unknown
Speed
Unknown
Apparent Right ascension
Unknown
Apparent Declination
Unknown
Sunlit
N/A
Visualization observer readout
Local Sidereal Time
21:26:31
Azimuth
Unknown
Elevation
Unknown
Doppler factor
Unknown
Orbital elements
Apogee altitude
562.084 km
Perigee altitude
561.552 km
Semi-major axis
6,939.955 km
Eccentricity
0.00004
Inclination
34.9939°
RAAN
182.216°
Arg. of periapsis
58.4465°
True anomaly
301.62436°
Mean anomaly
301.6281°
Eccentric anomaly
301.62623°
Mean motion
3.75412 °/min
Orbital period
95.89 mins
BSTAR
0.00011211
Loading maneuver chart data...
Computing Atmospheric mass density...
Loading historical data...
Loading historical data...
Loading historical data...
Loading historical data...
Loading historical data...
Loading historical data...
Loading historical data...
Other satellites on launch #21 in the year 2020 (2020-03-24 UTC)

Documentation

Showing up to 5 results
|